sat.trackr.live / text

‹ back to catalog

STARLINK-2021

NORAD 47604 · 2021-009BJ

PAYLOAD ACTIVE UNKNOWN

§ Identity

Operator
Country
US
Launch date
2021-02-04
Launch site
AFETR
Launch vehicle
Mass (kg)
RCS (m²)

Purposes: comms

External: N2YO · Heavens-Above · Gunter

§ Orbital elements

Epoch: 2026-05-25T00:00:02.000160Z

Period
90.89 min
Inclination
53.0355°
Eccentricity
0.0003212
Mean motion
15.84282606 rev/d
Perigee alt
316.2 km
Apogee alt
320.5 km
Semi-major
6,696.5 km
B*
8.0930e-4
RAAN
316.3969°
Arg perigee
298.4247°
Mean anomaly
274.1479°
Rev number
580

§ Raw data

STARLINK-20211 47604U 21009BJ  26145.00002315  .00190915  00000+0  80930-3 0  99992 47604  53.0355 316.3969 0003212 298.4247 274.1479 15.84282606  5804

JSON: /api/v1/satellites/47604 · /tle

For live sub-satellite position, see the globe view (requires WebGL).

§ Visibility from observer

Set your observer location to see the next 7 days of passes ≥ 10°. The values pass through the URL so the page stays shareable.

No JS? Fill the form by hand. The geolocation button needs JavaScript.